Dewpoint
51 50 48 48 46 45 43 43 42 41 42 42 41 41 42 43 41 42 40 42 37 33 33 32 30 27 27 25 22 20 18 19 19 17 15 13 15 20 20 17 18 18 20 20 21 19 17 23 23 22 23 26 25 26
49 48 47 45 44 43 43 42 43 43 41 42 42 42 43 44 44 42 38 40 39 34 31 32 32 32 31 30 28 25 20 22 20 20 22 24 20 18 17 14 13 15 19 23 27 21 24 24 23 22 21 24 26 26
47 45 43 42 43 42 43 42 41 42 42 42 40 39 40 39 39 37 36 38 37 30 27 24 24 24 26 28 29 26 23 23 23 25 26 23 16 16 14 12 12 12 12 21 25 23 22 18 17 17 17 21 25 24
44 43 42 43 42 42 42 41 42 42 40 38 37 37 37 36 35 36 35 37 33 28 21 18 19 19 22 24 25 26 25 24 26 24 23 23 20 18 16 15 15 16 16 13 13 13 13 13 12 12 14 14 14 15
43 42 42 42 43 43 43 42 40 38 36 37 37 36 34 33 32 34 35 34 33 26 21 19 20 20 18 18 19 23 26 26 24 21 21 21 19 18 17 16 14 14 13 13 13 13 12 12 13 14 14 14 14 16
41 40 41 43 42 41 40 38 37 37 36 36 34 33 32 32 33 31 29 35 36 31 26 18 22 19 19 20 19 18 20 20 19 21 20 20 20 17 16 15 11 12 14 15 13 13 13 14 14 15 15 15 16 16
40 41 42 42 40 40 38 37 36 36 35 33 33 33 32 32 34 29 27 33 34 33 25 19 19 20 19 21 23 24 25 24 23 24 23 21 20 19 22 16 16 17 17 19 18 16 15 15 16 17 17 17 18 18
40 40 41 41 40 39 38 36 35 34 33 34 34 33 34 35 34 30 34 36 35 30 28 20 17 19 19 18 19 22 22 24 27 24 23 20 20 24 19 18 18 21 21 21 22 22 22 23 23 23 23 22 20 20
39 40 42 40 39 38 36 35 33 34 34 34 35 33 31 29 26 31 32 34 35 31 22 21 16 13 20 19 22 24 25 22 25 23 22 20 21 19 20 20 20 21 20 20 20 20 21 22 23 24 24 25 24 23
40 42 41 39 38 37 35 34 34 34 35 32 30 25 25 31 34 32 30 25 23 28 27 21 19 17 20 22 22 22 24 24 21 22 22 21 18 22 21 19 18 18 18 19 19 19 19 20 20 20 21 23 24 25
40 41 41 39 38 36 34 34 34 33 30 30 27 26 31 31 29 23 20 18 19 20 23 21 21 21 23 20 21 23 21 21 18 22 21 21 20 20 19 18 18 19 19 19 20 21 22 22 22 22 22 22 23 25
39 41 40 37 35 34 33 34 32 33 32 31 31 32 30 24 22 16 15 17 16 16 23 23 20 20 20 25 24 22 20 20 15 27 23 19 19 19 18 18 19 19 19 19 20 22 23 23 23 23 22 22 23 24
39 41 38 35 34 33 33 34 33 31 29 28 24 21 19 19 14 13 10 14 18 23 23 22 18 19 21 26 24 23 19 15 18 20 19 18 20 19 19 19 19 20 20 21 21 22 24 24 24 26 26 25 23 24
40 38 35 33 33 32 33 35 32 29 27 19 13 2 11 12 14 15 19 21 23 21 21 20 18 18 21 21 20 19 19 20 19 16 15 19 20 19 19 19 20 19 20 20 21 22 23 23 24 26 27 28 26 27
36 35 33 32 32 33 34 33 30 29 25 17 15 3 9 16 21 21 22 22 23 23 20 18 18 20 17 19 20 21 19 18 16 14 17 20 20 19 19 19 19 19 19 20 21 21 23 23 23 23 25 26 25 24
34 33 32 32 33 33 34 31 30 28 24 19 17 13 17 18 19 20 21 21 23 20 20 19 15 15 14 17 17 17 15 12 15 18 21 20 18 18 18 19 19 19 19 20 20 20 21 22 22 23 23 24 25 25
33 32 33 33 35 33 31 29 25 21 18 17 17 19 18 18 18 19 21 23 23 18 14 17 14 11 18 17 17 17 14 17 20 21 21 19 18 18 18 19 18 19 19 20 19 19 19 21 22 21 20 22 23 23
31 34 33 34 30 28 25 26 21 18 14 17 14 19 19 19 18 19 21 22 20 17 17 15 19 14 14 14 14 15 17 19 22 21 20 19 18 18 18 18 18 18 18 19 19 18 18 18 18 19 20 21 21 21
34 35 34 32 28 24 20 19 21 13 17 18 19 20 19 19 22 18 16 17 18 19 19 17 15 14 14 15 14 14 16 17 17 20 20 19 19 18 17 18 17 17 17 17 18 17 18 18 18 19 19 20 18 19
35 33 30 27 25 18 16 16 19 18 16 18 19 18 18 20 20 17 17 18 19 19 15 13 13 14 13 15 17 16 17 19 19 20 19 18 18 17 15 15 14 14 14 15 15 17 16 14 16 18 20 18 17 18
30 28 27 23 18 17 16 16 17 17 17 16 16 16 17 18 18 19 17 18 16 13 12 15 15 16 17 18 17 17 18 18 17 17 17 16 16 12 12 14 14 12 12 12 12 13 14 13 12 13 15 17 18 17
27 25 21 20 16 14 11 11 14 14 14 15 14 13 14 14 15 15 17 14 13 13 14 14 15 16 16 14 15 16 17 18 17 17 16 14 11 11 11 12 13 13 13 13 13 12 13 14 13 12 13 13 13 16
21 18 14 15 12 12 9 10 12 11 12 12 10 11 12 12 13 14 13 14 14 16 16 16 17 17 16 16 16 15 16 15 13 14 13 11 10 11 11 11 12 12 12 12 13 13 12 14 14 13 12 12 12 12
14 9 9 8 8 8 8 8 9 10 9 9 9 9 10 10 8 12 11 13 15 16 15 15 17 16 16 15 12 12 13 16 13 12 10 11 11 10 10 11 11 11 12 13 13 13 13 13 13 13 14 11 11 11
6 5 7 6 7 7 7 7 7 8 7 6 6 8 8 5 8 9 10 11 13 13 13 14 15 15 13 13 13 12 13 14 12 10 10 10 11 12 11 11 11 12 12 11 11 12 12 13 12 12 12 14 11 10
2 5 7 7 7 6 6 5 6 6 6 6 6 6 4 5 5 5 8 8 10 10 10 10 10 13 12 12 12 11 11 12 11 9 10 10 10 10 10 9 9 9 13 12 12 12 12 12 12 11 11 11 12 9
3 6 10 12 10 8 7 6 6 6 5 6 6 6 5 4 3 6 9 9 9 9 10 10 10 11 12 11 12 12 11 11 10 10 11 11 11 11 10 8 8 9 13 11 12 14 13 12 12 12 11 11 9 8
8 9 5 8 7 7 6 6 5 5 5 6 5 5 4 3 3 7 8 9 8 8 9 9 9 10 10 10 11 11 11 10 10 10 10 10 10 12 11 11 11 13 11 11 16 15 14 14 12 10 8 8 7 7
8 8 6 5 5 5 5 6 5 7 9 7 5 4 3 6 7 7 10 10 9 8 8 9 8 10 10 10 10 10 10 11 9 8 8 8 8 9 11 10 10 9 8 8 11 15 15 14 13 9 7 7 7 7
7 8 5 4 5 5 5 7 7 9 10 8 7 6 6 7 8 9 9 8 8 8 6 7 8 9 9 9 9 10 10 10 10 9 8 8 9 11 11 10 9 8 7 7 6 6 10 7 7 5 4 4 5 5
7 6 5 5 4 6 7 8 8 11 9 7 6 6 5 6 9 8 7 7 6 5 5 6 7 7 8 9 9 9 9 10 10 12 14 12 11 11 10 10 9 8 7 6 5 4 4 4 4 3 3 3 3 4
6 4 4 4 4 6 7 8 8 8 7 7 6 7 6 6 5 6 7 7 7 6 8 7 7 7 6 6 6 8 11 8 9 11 15 15 13 12 11 10 9 6 5 5 4 2 2 2 2 2 2 2 2 2
2 2 3 4 4 5 6 7 6 5 6 6 6 7 6 6 5 5 7 7 7 7 7 7 7 7 6 6 7 7 8 6 9 14 14 16 14 13 12 11 9 7 5 5 4 2 1 0 1 0 0 -0 0 0
Wind_Speed
40 41 39 37 36 32 29 27 25 23 20 19 16 12 9 9 12 6 2 2 5 3 7 5 4 7 9 6 5 6 8 2 5 4 4 3 6 6 7 8 9 5 5 7 8 11 15 12 4 4 4 8 11 12
41 39 37 36 34 31 28 26 25 23 21 18 18 14 11 13 11 5 4 3 4 3 6 8 11 12 12 12 11 4 7 10 4 5 5 6 5 6 8 7 13 6 2 5 5 7 6 8 3 6 10 10 5 10
37 37 35 32 33 31 29 26 25 23 22 22 18 16 13 12 8 2 6 5 2 3 8 7 6 4 8 12 11 7 4 5 7 7 3 5 7 6 6 8 16 11 19 6 9 7 15 20 16 15 18 14 12 12
34 33 32 30 29 29 27 27 26 27 24 21 18 16 14 12 9 6 3 4 2 0 3 5 2 3 2 1 6 10 15 15 9 6 4 5 6 8 6 11 18 16 17 13 22 24 24 25 15 19 25 21 20 18
33 31 31 30 29 29 29 28 26 25 23 20 17 14 12 11 9 7 3 1 2 1 3 8 15 2 6 7 11 10 11 12 8 5 8 11 7 10 13 15 32 21 28 23 29 29 29 31 31 33 30 28 25 21
32 32 31 30 30 28 27 25 24 23 21 19 15 13 11 9 7 3 3 1 1 3 2 4 5 5 8 8 6 9 14 12 10 4 5 6 13 9 7 8 11 9 11 19 27 27 25 28 25 27 26 25 23 20
31 29 28 31 31 28 26 25 24 22 21 18 14 11 9 7 2 2 3 5 5 2 2 5 5 2 6 5 2 4 8 7 6 4 7 10 11 7 6 27 18 29 22 21 26 28 31 28 25 26 26 25 25 25
25 26 30 31 29 26 24 23 22 20 18 15 12 9 7 6 3 1 5 7 6 1 2 3 4 4 3 4 4 3 3 7 5 5 4 7 7 6 8 9 12 16 19 15 19 22 21 27 24 24 25 25 21 22
23 27 31 31 29 26 24 21 20 19 16 14 13 10 4 2 1 3 2 3 4 2 2 2 3 4 4 3 3 2 2 4 6 7 6 5 5 8 5 15 17 18 16 23 24 23 24 26 29 24 23 23 20 21
21 24 30 29 28 26 22 20 19 17 16 14 4 2 4 3 2 2 2 1 1 1 1 3 1 3 3 4 4 4 3 4 4 9 4 6 6 10 18 16 17 20 21 22 26 29 25 26 27 30 26 24 23 24
19 23 30 29 27 24 22 19 18 16 8 2 3 3 2 0 1 2 2 1 1 1 6 4 4 5 4 3 4 2 5 4 4 4 5 5 3 8 16 18 18 19 21 23 22 25 26 27 29 29 30 27 23 22
22 26 29 30 27 24 21 19 14 4 2 6 9 5 2 2 3 2 3 2 2 3 3 1 1 3 4 3 4 4 4 4 7 3 4 2 5 16 19 22 23 22 22 24 23 25 26 27 27 28 29 29 25 20
23 28 28 26 25 22 19 18 12 20 11 5 5 3 2 2 2 3 4 3 4 2 2 3 4 3 4 3 5 3 5 9 3 3 2 3 12 18 20 20 22 21 22 23 25 24 24 24 24 24 28 26 22 20
31 29 26 24 22 19 18 18 17 8 5 3 3 3 3 3 3 2 1 5 4 3 5 5 4 3 3 4 5 5 7 4 4 3 4 7 16 19 20 19 20 23 23 23 23 25 23 23 21 20 22 11 15 14
28 26 24 22 20 19 19 17 9 4 3 3 3 2 3 1 3 2 5 2 2 2 2 4 4 3 4 5 5 6 4 1 3 3 6 12 15 17 19 20 20 22 23 23 23 24 23 23 21 21 21 20 19 16
28 23 15 21 20 19 18 11 5 2 3 3 3 3 2 2 4 2 2 1 2 1 3 1 2 3 4 4 5 2 5 4 4 5 8 11 15 16 17 18 18 20 22 22 21 23 22 23 21 20 22 23 21 19
14 6 23 21 23 17 11 4 3 4 3 2 1 1 1 2 1 0 2 3 3 1 2 2 3 5 5 5 2 3 3 5 10 6 7 10 12 15 16 16 17 19 21 22 22 23 24 22 21 24 26 23 23 22
8 22 24 26 14 7 4 6 4 3 2 2 2 2 3 2 1 2 4 5 3 2 2 2 5 3 4 3 2 4 5 10 10 3 6 9 11 12 14 15 16 17 19 21 21 21 25 26 25 23 23 22 22 23
20 22 23 18 7 5 3 3 3 2 2 1 1 1 2 2 2 6 5 4 1 1 4 3 5 4 1 4 4 8 8 8 12 12 3 7 9 11 13 13 14 17 18 20 21 19 18 22 21 21 21 21 21 21
29 23 17 14 7 3 3 2 1 3 2 1 1 1 1 0 3 6 5 2 2 4 3 4 2 1 3 6 6 9 10 11 12 11 3 6 9 9 13 13 13 13 13 16 17 22 20 21 22 21 21 22 21 22
14 4 11 6 4 7 5 2 3 2 1 0 1 1 1 1 3 5 3 1 2 2 3 1 2 4 5 5 5 7 7 6 6 6 4 4 8 8 10 12 11 12 14 15 16 17 20 18 15 16 16 17 16 16
4 6 4 5 4 3 5 5 3 1 1 1 0 1 1 1 1 2 1 1 2 1 1 2 4 5 5 4 5 5 5 5 7 7 10 9 8 10 11 12 12 12 13 14 14 14 14 15 15 15 15 14 15 15
9 5 4 3 3 3 1 2 2 2 2 1 1 0 0 1 1 3 1 1 2 2 2 3 4 1 2 3 4 7 8 6 7 7 8 7 7 7 8 9 10 10 10 13 11 11 12 15 14 14 13 14 13 13
7 5 3 3 3 3 1 2 1 1 1 1 1 1 0 0 5 2 2 3 2 2 3 5 4 4 3 3 5 5 7 5 6 7 9 6 7 7 7 8 8 9 10 9 10 11 12 13 15 13 12 13 13 13
4 3 2 3 2 3 3 2 1 1 0 0 1 2 1 3 1 2 2 2 2 3 5 6 4 4 3 2 3 4 7 7 5 6 8 8 7 6 6 4 6 9 10 11 12 12 12 12 13 13 14 12 14 14
2 2 2 2 2 2 3 3 3 3 2 1 2 1 1 0 2 3 1 2 4 3 4 5 5 3 3 4 3 3 5 6 4 5 6 7 8 7 7 8 8 7 10 9 9 11 12 13 13 14 13 13 14 13
3 2 2 3 3 4 4 3 2 2 3 3 2 1 0 2 3 1 2 4 3 4 4 3 4 4 3 3 4 4 5 7 7 5 3 5 6 6 6 5 8 7 8 9 10 9 9 10 9 8 7 5 6 6
3 2 5 4 3 2 4 3 4 4 3 2 3 3 3 3 2 1 2 1 1 3 2 2 3 4 4 3 3 4 3 4 4 2 2 1 1 4 7 7 7 10 9 9 8 8 6 5 6 7 8 7 7 7
3 3 5 4 2 2 2 3 4 1 1 3 2 2 2 1 1 1 1 1 1 3 2 1 3 2 4 5 6 6 6 5 3 6 7 6 5 5 10 9 8 9 9 10 11 11 9 9 8 8 8 7 8 7
2 1 4 3 3 3 2 1 3 2 1 2 2 2 1 1 1 1 2 2 1 1 0 1 1 2 3 4 7 10 10 10 10 7 6 6 5 8 8 9 10 10 10 11 13 13 11 11 10 11 12 11 9 10
2 2 3 3 2 1 1 1 1 1 2 1 1 1 1 2 2 1 2 1 0 1 2 3 3 3 5 5 4 5 7 7 8 6 2 0 3 6 8 8 9 10 10 12 12 13 11 11 10 10 11 12 13 14
2 2 4 3 2 1 1 1 2 1 1 1 1 1 1 0 2 1 2 2 1 1 1 4 4 4 3 4 3 1 3 3 7 11 5 0 2 5 7 6 8 10 11 11 12 11 9 9 9 11 13 14 14 13
3 2 3 4 3 4 1 2 1 1 0 1 1 1 2 1 2 1 0 2 1 1 1 2 2 5 5 4 3 1 2 4 5 9 9 10 10 9 10 5 7 9 10 11 11 12 13 11 11 12 12 12 12 12
Wind_Direction
164 161 156 159 160 161 168 173 174 174 170 163 166 176 192 195 188 186 144 134 131 236 286 258 258 273 283 277 255 331 342 131 269 255 267 282 299 342 310 331 305 268 210 210 217 235 258 354 23 44 347 360 22 15
153 152 153 155 155 159 166 173 164 161 161 160 151 143 129 129 146 171 140 150 123 218 258 321 283 281 289 295 308 277 272 320 331 295 16 334 321 320 319 296 321 301 349 319 246 237 323 360 43 334 317 290 338 14
145 148 150 156 162 162 166 163 163 159 155 148 148 143 144 136 130 90 122 133 159 254 284 253 265 264 242 249 252 262 251 233 261 319 322 282 264 316 276 269 284 298 318 276 314 268 311 317 321 315 11 2 352 338
142 148 154 157 159 161 167 165 157 149 148 148 151 147 138 123 116 108 109 98 78 307 291 283 179 312 317 245 249 232 253 281 286 290 269 269 280 253 264 287 300 271 306 293 286 295 294 285 301 333 333 330 327 321
141 148 155 161 159 152 147 144 146 147 147 147 145 139 136 129 120 109 100 137 261 170 293 293 313 173 17 289 238 230 242 243 253 245 234 246 251 281 276 279 264 255 256 266 273 277 285 291 298 302 304 305 305 304
144 154 163 162 150 147 143 144 147 143 140 142 143 144 133 125 133 147 137 108 206 203 262 293 355 309 330 328 242 223 227 248 228 241 251 252 249 268 270 262 269 276 273 260 269 280 282 280 280 282 283 282 280 278
156 162 168 157 148 146 147 146 142 142 140 145 144 138 129 134 133 49 93 143 158 177 255 296 293 310 312 294 231 229 225 216 220 234 238 238 265 253 254 261 284 299 301 299 283 281 287 291 291 293 286 282 280 286
153 160 156 148 144 144 144 144 141 141 142 139 138 132 108 93 90 133 40 167 149 38 316 294 292 307 6 315 326 158 226 185 222 231 257 249 235 207 248 270 320 348 334 313 327 324 304 303 301 298 304 300 284 274
161 158 151 147 142 144 142 143 143 140 134 131 118 112 82 75 179 97 33 24 169 285 319 236 332 324 355 294 294 278 236 239 214 219 220 231 210 229 340 357 343 335 323 308 309 304 304 299 300 299 302 310 297 289
155 152 147 142 137 137 145 146 138 133 128 127 114 139 118 103 27 62 83 94 84 182 255 252 219 270 335 336 302 291 232 247 256 224 187 214 250 36 9 339 327 325 320 318 314 312 310 299 297 297 292 290 288 289
145 148 143 138 138 144 144 139 132 125 117 97 98 81 111 320 187 74 102 129 117 247 193 232 240 266 290 267 284 256 302 279 269 195 210 222 152 350 337 333 331 326 321 313 306 301 298 295 294 292 288 285 280 278
148 141 142 138 142 143 144 141 139 79 101 107 109 103 121 78 69 102 130 114 219 245 179 70 45 279 304 294 254 253 256 265 251 182 243 235 19 348 343 336 332 329 326 320 316 308 302 297 292 285 280 274 271 271
151 145 143 142 140 142 142 139 114 126 106 70 70 78 88 28 133 182 183 196 205 132 59 33 341 311 320 260 251 253 244 234 257 237 232 80 350 347 340 332 329 331 330 325 322 320 313 310 306 293 282 263 262 261
142 145 141 138 137 139 136 131 131 108 77 83 112 110 136 154 224 198 6 62 69 54 28 352 293 252 239 253 249 249 235 253 264 5 32 8 349 335 335 337 337 336 336 335 334 333 333 336 334 337 343 274 249 257
138 135 136 137 140 137 134 128 105 72 95 97 94 118 189 157 71 73 57 35 99 32 354 310 279 234 263 267 245 269 245 204 44 27 336 342 340 336 337 339 343 346 343 346 345 345 349 352 358 5 6 22 42 52
132 127 137 139 136 128 118 100 53 72 61 72 72 109 121 98 155 154 164 232 93 22 277 206 258 266 254 245 246 261 340 39 13 339 338 346 344 340 338 342 347 350 352 354 353 359 359 5 7 18 25 30 37 48
111 128 144 138 120 105 73 73 63 58 79 81 88 331 337 47 213 73 115 109 118 281 275 276 243 232 291 249 232 33 36 3 326 355 4 358 348 343 343 348 354 357 360 3 3 8 10 9 18 26 30 27 36 41
111 138 133 124 112 71 48 35 75 81 113 139 185 148 194 263 223 181 135 130 140 188 228 266 321 255 247 286 37 23 348 334 331 16 16 4 358 355 358 351 359 4 7 7 12 14 19 19 23 23 26 26 37 37
133 130 133 124 94 90 87 49 45 128 139 106 286 266 251 259 77 102 95 89 104 90 313 299 257 252 317 29 353 332 326 325 313 312 69 29 12 6 2 355 5 11 10 12 15 18 18 21 21 25 25 29 38 36
119 111 103 82 69 87 91 60 14 109 128 113 211 236 272 354 60 108 108 136 186 173 203 232 249 24 326 318 316 302 302 302 300 301 109 37 19 10 9 4 6 6 13 15 19 24 20 21 18 18 31 32 35 37
83 59 58 63 51 57 78 78 84 60 92 263 36 283 235 152 209 190 149 176 166 207 247 307 341 337 322 312 323 311 305 345 7 18 11 27 16 22 14 5 8 23 29 23 19 16 20 20 12 15 23 29 35 36
92 92 86 37 79 62 80 21 83 64 95 146 193 323 243 172 169 111 10 165 220 171 304 318 320 326 325 355 355 351 352 48 51 49 48 43 28 23 24 11 9 20 27 23 16 13 11 11 20 18 25 27 29 38
100 64 62 58 89 60 75 349 85 21 186 211 303 244 150 101 85 350 216 166 134 90 339 305 303 9 39 39 42 33 35 65 65 53 48 56 48 31 35 23 16 17 20 17 10 14 12 16 18 24 20 25 29 36
48 62 76 77 57 128 80 64 45 75 47 59 14 283 223 349 336 201 234 157 115 73 16 347 332 187 133 63 44 33 14 35 75 58 26 37 48 32 35 32 19 15 7 356 10 12 14 16 19 16 25 37 39 42
101 24 77 87 36 116 145 141 95 133 164 190 288 261 312 351 216 227 226 136 87 55 16 351 24 38 79 91 58 45 25 27 52 70 24 21 25 33 24 31 47 30 7 9 11 7 7 10 16 19 20 28 39 37
123 3 94 133 135 136 159 154 184 194 170 229 240 277 7 23 247 232 166 33 15 30 11 2 347 349 56 32 31 29 10 348 2 75 35 26 32 35 18 13 6 5 8 2 350 353 360 4 9 11 13 18 21 24
165 166 99 11 82 112 99 80 84 154 191 211 195 174 133 244 250 178 111 33 8 11 343 339 339 360 56 77 68 47 34 39 68 93 85 48 38 31 28 12 357 321 337 343 332 337 339 341 351 2 4 9 19 14
114 152 166 142 98 64 141 155 178 201 193 168 140 206 215 223 238 81 40 29 13 343 350 22 30 32 62 55 24 354 332 336 290 283 316 295 312 29 14 348 327 348 355 331 327 337 346 359 18 15 13 3 2 7
92 121 115 118 100 107 155 179 180 139 69 161 187 217 230 117 113 345 57 13 317 331 6 62 51 52 75 70 56 36 22 17 103 94 71 46 14 358 354 352 351 355 356 359 8 8 32 22 36 29 12 5 349 341
141 31 99 105 144 183 181 96 137 138 95 97 111 110 134 155 142 2 330 330 307 344 91 109 78 47 108 98 85 63 43 46 52 70 69 40 357 327 341 357 2 2 3 14 17 16 24 30 31 32 31 27 19 20
110 94 89 81 111 122 134 128 4 87 90 106 44 150 166 166 162 85 43 0 114 117 121 133 123 96 119 114 104 96 76 31 19 7 330 267 0 8 8 10 8 11 18 24 23 23 21 20 21 18 19 17 14 13
75 117 133 124 134 148 144 139 155 184 172 162 155 107 119 284 259 180 9 357 255 222 174 160 163 172 145 129 123 81 60 340 344 341 326 158 59 37 25 21 19 26 30 28 24 22 19 13 11 12 11 9 4 359
90 75 78 108 126 168 185 151 132 165 91 197 171 181 189 244 258 3 168 57 69 9 341 194 147 146 158 154 157 119 30 351 342 2 18 23 33 29 23 21 31 32 30 26 22 18 16 14 9 2 356 352 349 347